Location: Владивосток
(43.1151°N, 131.8856°E)
Time: 01:12:45
(UTC+10:00)

BlueWalker 3 - Pass Details

Date: 07 December 2022
Orbit: 499 x 517 km, 53.2° (Epoch: 01 February)

Event Time Altitude Azimuth Distance (km) Brightness Sun altitude
Rises 19:53:49 0° 307° (NW) 2,625 6.2 -24.1°
Reaches altitude 10° 19:56:03 10° 312° (NW) 1,732 5.1 -24.5°
Enters shadow 19:58:18 31° 327° (NNW) 909 3.4 -24.9°
